Regional Weather Roundup
Issued by NWS San Angelo, TX

Home | Current Version | Previous Version | Text Only | Print | Product List | Glossary On
Versions: 1 2 3 4 5 6 7 8 9 10 11 12 13 14 15 16 17 18 19 20 21 22 23 24 25 26 27 28 29 30 31 32 33 34 35 36 37 38 39 40 41 42 43 44 45 46 47 48 49 50
000
ASUS44 KSJT 010010
RWRSJT
WEST CENTRAL TEXAS REGIONAL WEATHER ROUNDUP
NATIONAL WEATHER SERVICE SAN ANGELO TX
700 PM CDT TUE SEP 30 2014

NOTE: "FAIR" INDICATES FEW OR NO CLOUDS BELOW 12,000 FEET WITH NO
SIGNIFICANT WEATHER AND/OR OBSTRUCTIONS TO VISIBILITY.

TXZ049-054-064>066-071>073-076>078-098-099-113-114-127-128-139-140-
154-155-168>170-010100
...LOCATIONS ACROSS WEST CENTRAL TEXAS...

CITY           SKY/WX    TMP DP  RH WIND       PRES   REMARKS
SAN ANGELO     CLEAR     89  58  34 S8        29.75S
ABILENE        CLEAR     88  56  33 S12       29.75F
DYESS AFB      CLEAR     88  59  38 S15       29.74S
JUNCTION       CLEAR     84  60  44 S7        29.79R
SWEETWATER     CLEAR     85  58  40 SE12      29.79S
BROWNWOOD      CLEAR     84  59  42 SE9       29.77S
COLEMAN        CLEAR     87  56  34 SE15G21   29.77S
SONORA         CLEAR     86  61  42 S10       29.83S
OZONA          FAIR      81  61  50 S9G17     29.82R
BRADY          CLEAR     84  61  45 SE8       29.79R HAZE
$$

TEXAS PANHANDLE/OKLAHOMA PANHANDLE

CITY           SKY/WX    TMP DP  RH WIND       PRES   REMARKS
AMARILLO       CLEAR     78  41  26 SW10      29.78S
BORGER         CLEAR     83  37  19 SW15G23   29.74R
CANADIAN       PTCLDY    82  63  51 S18G24    29.70S
DALHART        CLEAR     77  37  23 W8        29.79R
DUMAS          CLEAR     78  38  23 SW10      29.77R
GUYMON         NOT AVBL
HEREFORD       CLEAR     78  44  29 SW9       29.80S
PAMPA          CLEAR     80  40  24 SW15      29.76S
PERRYTON       CLEAR     83  34  17 W13       29.72R
$$

SOUTHERN PANHANDLE/SOUTH PLAINS/ROLLING PLAINS

CITY           SKY/WX    TMP DP  RH WIND       PRES   REMARKS
LUBBOCK        PTCLDY    82  49  31 SW13      29.78R
SNYDER         CLEAR     84  63  48 S8        29.76S
CHILDRESS      CLEAR     85  61  44 S14       29.73S
SEMINOLE       CLEAR     83  49  30 SW12      29.81R
$$

PERMIAN BASIN

CITY           SKY/WX    TMP DP  RH WIND       PRES   REMARKS
MIDLAND        CLEAR     89  56  32 SW10      29.77S
ODESSA         CLEAR     86  55  34 SW9       29.78F
WINK           CLEAR     88  58  36 S7        29.75S
$$

FAR WEST/SOUTHWEST MOUNTAINS/TRANS PECOS

CITY           SKY/WX    TMP DP  RH WIND       PRES   REMARKS
ALPINE         PTCLDY    82  57  42 SW7       29.95F
DRYDEN           N/A     88  63  43 SE14      29.77R
EL PASO        MOSUNNY   85  48  27 NW14      29.83F
FORT STOCKTON  CLEAR     84  59  42 S6        29.79S
GUADALUPE PASS CLEAR     74  46  36 SW23G35   29.95R
MARFA          CLEAR     82  50  32 SW10      29.95S
PECOS          CLEAR     87  57  36 SE7       29.75S
$$

DALLAS/FORT WORTH METROPLEX

CITY           SKY/WX    TMP DP  RH WIND       PRES   REMARKS
DFW AIRPORT    PTCLDY    88  63  43 S13       29.75R
FTW MEACHAM    CLEAR     89  60  37 SE14      29.74S
DAL-EXECUTIVE  MOCLDY    89  63  41 S8        29.75S
GRAND PRAIRIE  PTCLDY    88  61  40 MISG      29.77R
ADDISON        NOT AVBL
MESQUITE       PTCLDY    86  63  45 SE7       29.77R
LANCASTER      PTCLDY    87  62  42 SE8       29.77R
$$

NORTH CENTRAL TEXAS

CITY           SKY/WX    TMP DP  RH WIND       PRES   REMARKS
SHRMAN/DENISON PTCLDY    84  64  49 E7        29.78R
GAINESVILLE    CLEAR     83  63  50 SE8       29.78S
BRIDGEPORT     CLEAR     88  50  26 S8        29.76S
DENTON         PTCLDY    87  62  43 SE9       29.75R
WAXAHACHIE     PTCLDY    86  64  47 S8        29.77S
GRANBURY       CLEAR     89  54  29 S8        29.76S
$$

WESTERN NORTH TEXAS

CITY           SKY/WX    TMP DP  RH WIND       PRES   REMARKS
WICHITA FALLS  CLEAR     88  55  32 SE14      29.70F
VERNON         CLEAR     90  53  28 S12       29.71S
BRECKENRIDGE   CLEAR     89  53  29 S10       29.74R HAZE
COMANCHE       CLEAR     87  53  31 S8        29.78S
$$

CENTRAL AND SOUTH CENTRAL TEXAS

CITY           SKY/WX    TMP DP  RH WIND       PRES   REMARKS
AUSTIN/BERGSTM PTCLDY    86  67  52 S8        29.76S
WACO           CLEAR     86  65  49 S10       29.76S
HILLSBORO      CLEAR     88  58  36 S8        29.76S
TEMPLE         CLEAR     84  63  48 S10       29.77S
KILLEEN-GRAY   PTCLDY    86  63  45 SE10      29.78R
FORT HOOD      NOT AVBL
GEORGETOWN     CLEAR     86  66  51 SE5       29.79R
LAGO VISTA     FAIR      84  62  46 CALM      29.81S
SAN MARCOS     CLEAR     86  64  48 S8        29.78R
NEW BRAUNFELS  CLEAR     86  66  51 S9        29.76S
RANDOLPH AFB   PTCLDY    84  66  53 SE7       29.78R
SAN ANTONIO    PTCLDY    87  63  44 SE9       29.77S
STINSON        CLEAR     87  65  47 SE7       29.75S
PLEASANTON     NOT AVBL
LA GRANGE      PTCLDY    86  73  63 SE3       29.76R
GIDDINGS       CLEAR     83  69  62 CALM      29.81S
$$

EAST TEXAS

CITY           SKY/WX    TMP DP  RH WIND       PRES   REMARKS
PARIS          MOCLDY    81  64  57 E9        29.80S
CLARKSVILLE    NOT AVBL
TYLER          PTCLDY    85  68  56 SE5       29.79S
LONGVIEW       PTCLDY    85  67  54 SE7       29.79R
PALESTINE      CLEAR     84  71  64 SE3       29.80S
NACOGDOCHES    CLEAR     82  70  65 SE6       29.80R
$$

TEXAS HILL COUNTRY AND EDWARDS PLATEAU

CITY           SKY/WX    TMP DP  RH WIND       PRES   REMARKS
LLANO          PTCLDY    86  63  45 SE8       29.80S
HORSESHOE BAY  FAIR      85  61  44 S5        29.79R
KERRVILLE      CLEAR     82  65  55 S6        29.81S
FREDERICKSBRG  CLEAR     82  62  52 SE5       29.82R
ROCKSPRINGS    CLEAR     81  63  54 SE10      29.85S
HONDO          CLEAR     87  63  44 SE9       29.78S
UVALDE         CLEAR     88  68  50 SE8       29.78R
DEL RIO        CLEAR     87  66  49 SE10      29.73S
$$

SOUTHEAST TEXAS

CITY           SKY/WX    TMP DP  RH WIND       PRES   REMARKS
COLLEGE STN    CLEAR     83  70  64 SE7       29.78R
CALDWELL       CLEAR     84  70  61 SE6       29.80S
CROCKETT       CLEAR     86  75  70 SE6       29.81S
BRENHAM        CLEAR     86  70  59 SE8       29.78S
HUNTSVILLE     CLEAR     85  70  60 CALM      29.79R
CONROE         PTCLDY    82  72  71 SE5       29.79S
HOUSTON BUSH   MOCLDY    82  72  71 CALM      29.79R
HOUSTON HOBBY  MOCLDY    79  76  90 CALM      29.79R
PERLAND        MOCLDY    81  75  82 SE5       29.81R
WHARTON        CLEAR     78  73  85 E7        29.79S
$$

THE UPPER TEXAS COAST

CITY           SKY/WX    TMP DP  RH WIND       PRES   REMARKS
ORANGE         CLEAR     82  73  75 SE6       29.82S
PORT ARTHUR    CLEAR     80  72  76 SE7       29.80S
GALVESTON      MOCLDY    82  76  81 E8        29.80S
ANGLETON       MOCLDY    81  75  82 E3        29.80R
BAY CITY       CLOUDY   N/A N/A N/A NE5       29.79S HAZE
$$

TEXAS COASTAL BEND, RIO GRANDE PLAINS DEEP SOUTH TEXAS

CITY           SKY/WX    TMP DP  RH WIND       PRES   REMARKS
VICTORIA       CLOUDY    84  75  74 SE13      29.77S
BEEVILLE       FAIR      85  71  61 SE9       29.76R
ROCKPORT       CLEAR     82  76  81 E9        29.76S
PORT ARANSAS   CLEAR     82  75  80 E8        29.76S
PORT LAVACA    CLEAR     80  76  86 SE9       29.78R
CORPUS CHRISTI PTCLDY    82  75  79 E8        29.76R
KINGSVILLE NAS PTCLDY    82  78  88 SE5       29.76R
COTULLA        CLEAR     90  65  43 SE8       29.75S
LAREDO         CLOUDY    89  70  53 E8        29.77R
BROWNSVILLE    PTCLDY    83  79  88 SE9       29.75S
PORT ISABEL    CLEAR     82  75  79 SE13      29.75S
HEBBRONVILLE   CLEAR     85  73  67 E7        29.78R
MCALLEN        CLEAR     85  74  69 SE5       29.75S
WESLACO        CLEAR     87  71  57 CALM      29.74S HAZE
FALFURRIAS     CLEAR     82  74  74 SE6       29.75S
EDINBURG       CLEAR     87  73  61 E5        29.74S
$$


USA.gov is the U.S. government's official web portal to all federal, state and local government web resources and services.